AirNav   Air Wisconsin pilot careers
 
 793 users online  

27IL Jersey Community Hospital Heliport
Jerseyville, Illinois, USA

GOING TO JERSEYVILLE?


FAA INFORMATION EFFECTIVE 01 FEBRUARY 2018

Location

FAA Identifier: 27IL
Lat/Long: 39-06-36.9600N / 090-20-38.0000W
39-06.616000N / 090-20.633333W
39.1102667 / -90.3438889
(estimated)
Elevation: 630 ft. / 192 m (estimated)
Variation: 02E (1985)
Time zone: UTC -6 (UTC -5 during Daylight Saving Time)
Zip code: 62052

Heliport Operations

Heliport use: Private use, MEDICAL USE.
Activation date: 07/1990
Control tower: no
ARTCC: KANSAS CITY CENTER
FSS: SAINT LOUIS FLIGHT SERVICE STATION
Attendance: CONTINUOUS
Wind indicator: yes
Segmented circle: no
Lights: FOR PERIMETER LGTS CALL 618-498-8365 OR 618-946-1650.
Beacon: white-green-yellow (heliport)
FOR ROTG BCN CALL 618-498-8365 OR 618-946-1650.

Heliport Communications

WX ASOS at SET (12 nm S): 118.075 (636-250-4590)
WX AWOS-3 at ALN (19 nm SE): 128.0 (618-259-7231)

Nearby radio navigation aids

VOR radial/distance  VOR name  Freq  Var
STLr022/16.3ST LOUIS VORTAC117.4001E
CSXr002/21.5CARDINAL VOR/DME116.4500E
TOYr314/29.8TROY VORTAC116.0004E
FTZr045/38.5FORISTELL VORTAC110.8005E

 
NDB name  Hdg/Dist  Freq  Var  ID
CIVIC MEMORIAL315/18.726301WCVM -.-. ...- --

Heliport Services

Runway Information

Helipad H1

Dimensions: 40 x 40 ft. / 12 x 12 m
Surface: concrete
Runway edge lights: PERIMETER LGTS.
Latitude: 39-06.616000N
Longitude: 090-20.633333W
Elevation: 630.0 ft.
Traffic pattern: leftleft

Heliport Ownership and Management from official FAA records

Ownership: Publicly-owned
Owner: JERSEY COMMUNITY HOSPITAL
PO BOX 426, 400 MAPLE SUMMIT
JERSEYVILLE, IL 62052
Phone 618-498-6402
Manager: STEVEN LEBLANC
PO BOX 426, 400 MAPLE SUMMIT
JERSEYVILLE, IL 62052
Phone (618) 946-1650
OTHER CONTACT: JOHN WADE (ADMIN), 618-498-6402

Additional Remarks

A52-H1 115' LGTD/MKD RADIO TOWER 190' NNE.

Instrument Procedures

There are no published instrument procedures at 27IL.

Some nearby airports with instrument procedures:

KSET - St Charles County Smartt Airport (12 nm S)
KALN - St Louis Regional Airport (19 nm SE)
KSTL - St Louis Lambert International Airport (22 nm S)
1H0 - Creve Coeur Airport (24 nm S)
KSUS - Spirit of St Louis Airport (30 nm SW)
 
Loc | Ops | Rwys | IFR | FBO | Links
Com | Nav | Svcs | Stats | Notes

AirNav Hotels Sweepstakes
 
Area around 27IL (Jersey Community Hospital Heliport)
 
Road maps at: MapQuest Bing Google
 
Aerial photo
No photo
 
Sectional chart

 
Airport distance calculator
Flying to Jersey Community Hospital Heliport? Find the distance to fly.

From to 27IL

Sunrise and sunset
Times for 25-Feb-2018
 Local
(UTC-6)
 Zulu
(UTC)
Morning civil twilight06:1412:14
Sunrise06:4112:41
Sunset17:4823:48
Evening civil twilight18:1500:15

Current date and time
Zulu (UTC)  25-Feb-2018 13:54:48
Local (UTC-6)  25-Feb-2018 07:54:48
 
METAR
KSET 
11nm S 
251254Z AUTO 00000KT 10SM 01/M02 A3001 RMK AO2 SLP162 T00111017 $
KALN 
20nm SE 
251250Z 24008KT 10SM SCT150 00/00 A3000
KSTL 
22nm S 
251251Z 25005KT 10SM SCT250 01/M01 A3001 RMK AO2 SLP164 T00111011
TAF
KSTL 
22nm S 
251131Z 2512/2618 25009KT P6SM SKC FM260100 VRB04KT P6SM SKC
NOTAMs
Click for the latest NOTAMs
NOTAMs are issued by the DoD/FAA and will open in a separate window not controlled by AirNav.

 

 
 

Would you like to see your business listed on this page?

 If your business provides an interesting product or service to pilots, flight crews, aircraft, or users of the Jersey Community Hospital Heliport, you should consider listing it here.  To start the listing process, click on the button below
 
Add a business
 

Other Pages about Jersey Community Hospital Heliport

Update a link
 
Copyright © AirNav, LLC. All rights reserved. Privacy Policy  Contact